Home   Weather   Lloydminster   Past weeks

Flag for Canada Past Weather in Lloydminster, Alberta, Canada — Yesterday and Last 2 Weeks

41 °F


Feels Like: 34 °F
Forecast: 30 / 40 °F
Wind: 12 mph from West

Location: Lloydminister

Current Time: Oct 26, 2016 at 1:33:46 AM

Latest Report: Oct 26, 2016 at 1:00 AM

Visibility: 4 mi

Pressure: 29.97 "Hg (27.68 "Hg at 648m altitude)

Humidity: 100%

Dew Point: 41 °F

Location of LloydminsterLocation

Past Weather in Lloydminster — Graph


Lloydminster Temperature Yesterday

Maximum temperature yesterday: 41 °F (at 2:00 PM)
Minimum temperature yesterday: 36 °F (at 12:00 AM)
Average temperature yesterday: 39 °F

High & Low Weather Summary for the Past Weeks

High48 °F (Oct 21, 4:00 PM)100% (Oct 14, 3:00 AM)30.39 "Hg (Oct 14, 3:00 AM)
Low21 °F (Oct 12, 6:00 AM)56% (Oct 12, 4:00 PM)29.33 "Hg (Oct 14, 3:00 PM)
Average32 °F91%29.93 "Hg
* Reported Oct 11 12:00 AM — Oct 26 12:00 AM, Lloydminster, Weather by CustomWeather, © 2016

Note: Actual official high and low records may vary slightly from our data, if they occured in-between our weather recording intervals... More about our weather records


Lloydminster Weather History for the Previous 24 Hours

Scroll right to see more
Time TempWeatherWind HumidityBarometerVisibility
12:00 AM
Wed, Oct 26
41 °FFog.7 mph93%29.96 "Hg1 mi
11:53 PM
Tue, Oct 25
41 °FFog.6 mph93%29.97 "Hg1 mi
11:00 PM41 °FFog.2 mph93%29.96 "Hg1 mi
10:00 PM41 °FFog.5 mph93%29.96 "Hg3 mi
9:00 PM41 °FFog.7 mph93%29.97 "Hg3 mi
8:00 PM41 °FLight rain. Fog.8 mph93%29.98 "Hg3 mi
7:00 PM41 °FLight rain. Fog.12 mph93%29.97 "Hg4 mi
6:00 PM41 °FFog.12 mph93%29.99 "Hg4 mi
5:00 PM41 °FFog.12 mph93%29.98 "Hg4 mi
4:00 PM41 °FFog.13 mph93%29.99 "Hg3 mi
3:00 PM41 °FFog.15 mph93%29.99 "Hg4 mi
2:00 PM41 °FFog.12 mph93%30.00 "Hg4 mi
1:00 PM39 °FFog.12 mph100%30.03 "Hg4 mi
12:00 PM39 °FDrizzle. Fog.15 mph100%30.03 "Hg3 mi
11:00 AM39 °FDrizzle. Fog.12 mph100%30.03 "Hg2 mi
10:50 AM39 °FDrizzle. Fog.13 mph100%30.04 "Hg2 mi
10:00 AM39 °FFog.15 mph100%30.06 "Hg2 mi
9:00 AM39 °FFog.17 mph100%30.04 "Hg3 mi
8:00 AM39 °FFog.14 mph100%30.06 "Hg5 mi
7:00 AM39 °FFog.14 mph100%30.05 "Hg5 mi
6:00 AM39 °FFog.12 mph100%30.05 "Hg3 mi
5:00 AM37 °FFog.8 mph100%30.07 "Hg3 mi
4:51 AM37 °FFog.10 mph100%30.07 "Hg3 mi
4:00 AM37 °FFog.9 mph100%30.09 "Hg2 mi
3:00 AM37 °FFog.8 mph100%30.09 "Hg2 mi
2:00 AM37 °FFog.12 mph100%30.09 "Hg2 mi
1:00 AM36 °FFog.9 mph100%30.11 "Hg1 mi
Weather by CustomWeather, © 2016

See weather overviewHow to use our weather pages